Year,Month,Day,Hour,Minute,Value (Times are PST for windgust in km/hr)
2016,03,03,00,00,9.60
2016,03,03,00,01,4.80
2016,03,03,00,02,4.80
2016,03,03,00,03,9.60
2016,03,03,00,04,6.40
2016,03,03,00,05,6.40
2016,03,03,00,06,4.80
2016,03,03,00,07,6.40
2016,03,03,00,08,6.40
2016,03,03,00,09,3.20
2016,03,03,00,10,3.20
2016,03,03,00,11,6.40
2016,03,03,00,12,6.40
2016,03,03,00,13,4.80
2016,03,03,00,14,4.80
2016,03,03,00,15,3.20
2016,03,03,00,16,4.80
2016,03,03,00,17,4.80
2016,03,03,00,18,1.60
2016,03,03,00,20,3.20
2016,03,03,00,21,3.20
2016,03,03,00,22,3.20
2016,03,03,00,23,4.80
2016,03,03,00,24,4.80
2016,03,03,00,25,4.80
2016,03,03,00,26,4.80
2016,03,03,00,27,6.40
2016,03,03,00,28,6.40
2016,03,03,00,29,4.80
2016,03,03,00,30,3.20
2016,03,03,00,31,4.80
2016,03,03,00,32,3.20
2016,03,03,00,33,3.20
2016,03,03,00,34,3.20
2016,03,03,00,35,8.10
2016,03,03,00,36,6.40
2016,03,03,00,37,6.40
2016,03,03,00,38,8.10
2016,03,03,00,39,4.80
2016,03,03,00,40,8.10
2016,03,03,00,41,9.60
2016,03,03,00,42,8.10
2016,03,03,00,43,8.10
2016,03,03,00,44,6.40
2016,03,03,00,45,4.80
2016,03,03,00,46,3.20
2016,03,03,00,47,3.20
2016,03,03,00,48,1.60
2016,03,03,00,49,4.80
2016,03,03,00,50,4.80
2016,03,03,00,51,1.60
2016,03,03,00,52,4.80
2016,03,03,00,53,4.80
2016,03,03,00,54,6.40
2016,03,03,00,55,12.90
2016,03,03,00,56,11.30
2016,03,03,00,57,11.30
2016,03,03,00,58,6.40
2016,03,03,00,59,6.40
2016,03,03,01,00,1.60
2016,03,03,01,01,1.60
2016,03,03,01,03,3.20
2016,03,03,01,04,3.20
2016,03,03,01,05,3.20
2016,03,03,01,06,4.80
2016,03,03,01,07,4.80
2016,03,03,01,08,8.10
2016,03,03,01,09,8.10
2016,03,03,01,10,6.40
2016,03,03,01,11,6.40
2016,03,03,01,12,4.80
2016,03,03,01,13,6.40
2016,03,03,01,14,3.20
2016,03,03,01,15,4.80
2016,03,03,01,16,3.20
2016,03,03,01,17,4.80
2016,03,03,01,18,8.10
2016,03,03,01,19,8.10
2016,03,03,01,20,4.80
2016,03,03,01,21,4.80
2016,03,03,01,22,8.10
2016,03,03,01,23,9.60
2016,03,03,01,24,9.60
2016,03,03,01,25,11.30
2016,03,03,01,26,9.60
2016,03,03,01,27,11.30
2016,03,03,01,28,9.60
2016,03,03,01,29,8.10
2016,03,03,01,30,8.10
2016,03,03,01,31,8.10
2016,03,03,01,32,6.40
2016,03,03,01,33,4.80
2016,03,03,01,34,6.40
2016,03,03,01,35,4.80
2016,03,03,01,36,4.80
2016,03,03,01,37,1.60
2016,03,03,01,38,6.40
2016,03,03,01,39,6.40
2016,03,03,01,40,6.40
2016,03,03,01,41,9.60
2016,03,03,01,42,9.60
2016,03,03,01,43,8.10
2016,03,03,01,44,8.10
2016,03,03,01,45,6.40
2016,03,03,01,46,6.40
2016,03,03,01,47,4.80
2016,03,03,01,48,6.40
2016,03,03,01,49,4.80
2016,03,03,01,50,3.20
2016,03,03,01,51,8.10
2016,03,03,01,52,6.40
2016,03,03,01,53,3.20
2016,03,03,01,54,4.80
2016,03,03,01,55,3.20
2016,03,03,01,56,4.80
2016,03,03,01,57,4.80
2016,03,03,01,58,6.40
2016,03,03,01,59,9.60
2016,03,03,02,00,4.80
2016,03,03,02,01,3.20
2016,03,03,02,02,3.20
2016,03,03,02,03,4.80
2016,03,03,02,04,4.80
2016,03,03,02,05,4.80
2016,03,03,02,06,6.40
2016,03,03,02,07,4.80
2016,03,03,02,08,3.20
2016,03,03,02,09,4.80
2016,03,03,02,10,4.80
2016,03,03,02,13,3.20
2016,03,03,02,14,4.80
2016,03,03,02,15,3.20
2016,03,03,02,16,1.60
2016,03,03,02,18,4.80
2016,03,03,02,19,3.20
2016,03,03,02,20,3.20
2016,03,03,02,21,3.20
2016,03,03,02,22,4.80
2016,03,03,02,23,3.20
2016,03,03,02,24,3.20
2016,03,03,02,25,1.60
2016,03,03,02,26,3.20
2016,03,03,02,27,1.60
2016,03,03,02,28,3.20
2016,03,03,02,29,3.20
2016,03,03,02,30,3.20
2016,03,03,02,31,3.20
2016,03,03,02,32,3.20
2016,03,03,02,33,9.60
2016,03,03,02,34,6.40
2016,03,03,02,35,4.80
2016,03,03,02,36,4.80
2016,03,03,02,37,4.80
2016,03,03,02,38,4.80
2016,03,03,02,39,4.80
2016,03,03,02,40,3.20
2016,03,03,02,41,4.80
2016,03,03,02,42,3.20
2016,03,03,02,43,4.80
2016,03,03,02,44,4.80
2016,03,03,02,45,4.80
2016,03,03,02,46,6.40
2016,03,03,02,47,6.40
2016,03,03,02,48,3.20
2016,03,03,02,49,6.40
2016,03,03,02,50,6.40
2016,03,03,02,51,4.80
2016,03,03,02,52,3.20
2016,03,03,02,53,3.20
2016,03,03,02,54,4.80
2016,03,03,02,55,4.80
2016,03,03,02,56,4.80
2016,03,03,02,57,4.80
2016,03,03,02,58,4.80
2016,03,03,02,59,3.20
2016,03,03,03,00,1.60
2016,03,03,03,01,3.20
2016,03,03,03,02,1.60
2016,03,03,03,03,1.60
2016,03,03,03,04,3.20
2016,03,03,03,05,6.40
2016,03,03,03,06,4.80
2016,03,03,03,07,4.80
2016,03,03,03,08,1.60
2016,03,03,03,09,4.80
2016,03,03,03,10,4.80
2016,03,03,03,11,4.80
2016,03,03,03,12,4.80
2016,03,03,03,13,4.80
2016,03,03,03,14,3.20
2016,03,03,03,15,1.60
2016,03,03,03,16,4.80
2016,03,03,03,17,4.80
2016,03,03,03,18,4.80
2016,03,03,03,19,3.20
2016,03,03,03,20,3.20
2016,03,03,03,23,1.60
2016,03,03,03,24,4.80
2016,03,03,03,25,6.40
2016,03,03,03,26,6.40
2016,03,03,03,27,4.80
2016,03,03,03,28,4.80
2016,03,03,03,29,1.60
2016,03,03,03,30,4.80
2016,03,03,03,31,4.80
2016,03,03,03,32,3.20
2016,03,03,03,33,1.60
2016,03,03,03,34,1.60
2016,03,03,03,35,3.20
2016,03,03,03,36,3.20
2016,03,03,03,37,6.40
2016,03,03,03,38,6.40
2016,03,03,03,39,4.80
2016,03,03,03,40,4.80
2016,03,03,03,41,3.20
2016,03,03,03,42,1.60
2016,03,03,03,43,1.60
2016,03,03,03,44,4.80
2016,03,03,03,45,12.90
2016,03,03,03,46,12.90
2016,03,03,03,47,6.40
2016,03,03,03,48,3.20
2016,03,03,03,49,1.60
2016,03,03,03,51,3.20
2016,03,03,03,52,3.20
2016,03,03,03,53,4.80
2016,03,03,03,54,4.80
2016,03,03,03,55,8.10
2016,03,03,03,56,6.40
2016,03,03,03,57,1.60
2016,03,03,03,58,3.20
2016,03,03,03,59,3.20
2016,03,03,04,00,1.60
2016,03,03,04,01,3.20
2016,03,03,04,02,1.60
2016,03,03,04,03,3.20
2016,03,03,04,04,3.20
2016,03,03,04,05,3.20
2016,03,03,04,06,1.60
2016,03,03,04,07,3.20
2016,03,03,04,08,3.20
2016,03,03,04,09,4.80
2016,03,03,04,10,3.20
2016,03,03,04,11,3.20
2016,03,03,04,12,4.80
2016,03,03,04,13,4.80
2016,03,03,04,14,4.80
2016,03,03,04,15,3.20
2016,03,03,04,16,3.20
2016,03,03,04,17,3.20
2016,03,03,04,18,8.10
2016,03,03,04,19,8.10
2016,03,03,04,20,8.10
2016,03,03,04,21,6.40
2016,03,03,04,22,6.40
2016,03,03,04,23,4.80
2016,03,03,04,24,3.20
2016,03,03,04,25,1.60
2016,03,03,04,26,3.20
2016,03,03,04,27,1.60
2016,03,03,04,28,3.20
2016,03,03,04,29,4.80
2016,03,03,04,30,4.80
2016,03,03,04,31,4.80
2016,03,03,04,32,4.80
2016,03,03,04,33,3.20
2016,03,03,04,34,6.40
2016,03,03,04,35,4.80
2016,03,03,04,36,4.80
2016,03,03,04,37,6.40
2016,03,03,04,38,4.80
2016,03,03,04,39,3.20
2016,03,03,04,40,3.20
2016,03,03,04,41,6.40
2016,03,03,04,42,8.10
2016,03,03,04,43,6.40
2016,03,03,04,44,4.80
2016,03,03,04,45,3.20
2016,03,03,04,46,3.20
2016,03,03,04,47,3.20
2016,03,03,04,49,3.20
2016,03,03,04,50,6.40
2016,03,03,04,51,3.20
2016,03,03,04,52,3.20
2016,03,03,04,53,1.60
2016,03,03,04,54,1.60
2016,03,03,04,55,4.80
2016,03,03,04,56,4.80
2016,03,03,04,57,4.80
2016,03,03,04,58,4.80
2016,03,03,04,59,3.20
2016,03,03,05,01,1.60
2016,03,03,05,02,1.60
2016,03,03,05,04,3.20
2016,03,03,05,05,1.60
2016,03,03,05,06,3.20
2016,03,03,05,07,3.20
2016,03,03,05,08,4.80
2016,03,03,05,09,4.80
2016,03,03,05,10,1.60
2016,03,03,05,12,3.20
2016,03,03,05,13,3.20
2016,03,03,05,14,3.20
2016,03,03,05,15,3.20
2016,03,03,05,16,4.80
2016,03,03,05,17,3.20
2016,03,03,05,18,3.20
2016,03,03,05,19,1.60
2016,03,03,05,20,1.60
2016,03,03,05,21,1.60
2016,03,03,05,22,1.60
2016,03,03,05,23,1.60
2016,03,03,05,24,1.60
2016,03,03,05,25,1.60
2016,03,03,05,26,3.20
2016,03,03,05,27,3.20
2016,03,03,05,28,4.80
2016,03,03,05,29,3.20
2016,03,03,05,30,3.20
2016,03,03,05,31,3.20
2016,03,03,05,32,4.80
2016,03,03,05,33,4.80
2016,03,03,05,34,4.80
2016,03,03,05,35,4.80
2016,03,03,05,36,6.40
2016,03,03,05,37,4.80
2016,03,03,05,38,3.20
2016,03,03,05,39,4.80
2016,03,03,05,40,3.20
2016,03,03,05,41,3.20
2016,03,03,05,42,6.40
2016,03,03,05,43,6.40
2016,03,03,05,44,3.20
2016,03,03,05,45,4.80
2016,03,03,05,46,9.60
2016,03,03,05,47,8.10
2016,03,03,05,48,11.30
2016,03,03,05,49,11.30
2016,03,03,05,50,9.60
2016,03,03,05,51,6.40
2016,03,03,05,52,6.40
2016,03,03,05,53,6.40
2016,03,03,05,54,8.10
2016,03,03,05,55,9.60
2016,03,03,05,56,9.60
2016,03,03,05,57,6.40
2016,03,03,05,58,9.60
2016,03,03,05,59,9.60
2016,03,03,06,00,9.60
2016,03,03,06,01,11.30
2016,03,03,06,02,11.30
2016,03,03,06,03,12.90
2016,03,03,06,04,11.30
2016,03,03,06,05,9.60
2016,03,03,06,06,11.30
2016,03,03,06,07,11.30
2016,03,03,06,08,12.90
2016,03,03,06,09,12.90
2016,03,03,06,10,12.90
2016,03,03,06,11,14.50
2016,03,03,06,12,12.90
2016,03,03,06,13,9.60
2016,03,03,06,14,11.30
2016,03,03,06,15,11.30
2016,03,03,06,16,9.60
2016,03,03,06,17,8.10
2016,03,03,06,18,9.60
2016,03,03,06,19,8.10
2016,03,03,06,20,6.40
2016,03,03,06,21,6.40
2016,03,03,06,22,6.40
2016,03,03,06,23,3.20
2016,03,03,06,24,4.80
2016,03,03,06,25,4.80
2016,03,03,06,26,4.80
2016,03,03,06,27,3.20
2016,03,03,06,28,3.20
2016,03,03,06,29,6.40
2016,03,03,06,30,8.10
2016,03,03,06,31,11.30
2016,03,03,06,32,9.60
2016,03,03,06,33,6.40
2016,03,03,06,34,8.10
2016,03,03,06,35,8.10
2016,03,03,06,36,8.10
2016,03,03,06,37,6.40
2016,03,03,06,38,8.10
2016,03,03,06,39,9.60
2016,03,03,06,40,9.60
2016,03,03,06,41,8.10
2016,03,03,06,42,8.10
2016,03,03,06,43,4.80
2016,03,03,06,44,6.40
2016,03,03,06,45,6.40
2016,03,03,06,46,4.80
2016,03,03,06,47,4.80
2016,03,03,06,48,3.20
2016,03,03,06,49,3.20
2016,03,03,06,50,1.60
2016,03,03,06,51,3.20
2016,03,03,06,52,3.20
2016,03,03,06,53,3.20
2016,03,03,06,54,3.20
2016,03,03,06,55,3.20
2016,03,03,06,56,6.40
2016,03,03,06,57,3.20
2016,03,03,06,58,4.80
2016,03,03,06,59,3.20
2016,03,03,07,00,6.40
2016,03,03,07,01,4.80
2016,03,03,07,02,3.20
2016,03,03,07,03,1.60
2016,03,03,07,04,3.20
2016,03,03,07,05,3.20
2016,03,03,07,06,4.80
2016,03,03,07,07,3.20
2016,03,03,07,08,3.20
2016,03,03,07,09,3.20
2016,03,03,07,10,6.40
2016,03,03,07,11,4.80
2016,03,03,07,12,3.20
2016,03,03,07,13,6.40
2016,03,03,07,14,9.60
2016,03,03,07,15,9.60
2016,03,03,07,16,4.80
2016,03,03,07,17,4.80
2016,03,03,07,18,11.30
2016,03,03,07,19,11.30
2016,03,03,07,20,6.40
2016,03,03,07,21,11.30
2016,03,03,07,22,6.40
2016,03,03,07,23,4.80
2016,03,03,07,24,3.20
2016,03,03,07,25,6.40
2016,03,03,07,26,4.80
2016,03,03,07,27,4.80
2016,03,03,07,28,4.80
2016,03,03,07,29,4.80
2016,03,03,07,30,6.40
2016,03,03,07,31,4.80
2016,03,03,07,32,8.10
2016,03,03,07,33,9.60
2016,03,03,07,34,6.40
2016,03,03,07,35,6.40
2016,03,03,07,36,4.80
2016,03,03,07,37,6.40
2016,03,03,07,38,9.60
2016,03,03,07,39,6.40
2016,03,03,07,40,6.40
2016,03,03,07,41,6.40
2016,03,03,07,42,6.40
2016,03,03,07,43,8.10
2016,03,03,07,44,11.30
2016,03,03,07,45,9.60
2016,03,03,07,46,6.40
2016,03,03,07,47,11.30
2016,03,03,07,48,6.40
2016,03,03,07,49,6.40
2016,03,03,07,50,16.10
2016,03,03,07,51,11.30
2016,03,03,07,52,6.40
2016,03,03,07,53,4.80
2016,03,03,07,54,8.10
2016,03,03,07,55,8.10
2016,03,03,07,56,4.80
2016,03,03,07,57,4.80
2016,03,03,07,58,6.40
2016,03,03,07,59,3.20
2016,03,03,08,00,3.20
2016,03,03,08,01,3.20
2016,03,03,08,02,9.60
2016,03,03,08,03,4.80
2016,03,03,08,04,4.80
2016,03,03,08,05,8.10
2016,03,03,08,06,4.80
2016,03,03,08,07,6.40
2016,03,03,08,08,8.10
2016,03,03,08,09,6.40
2016,03,03,08,10,9.60
2016,03,03,08,11,6.40
2016,03,03,08,12,6.40
2016,03,03,08,13,4.80
2016,03,03,08,14,4.80
2016,03,03,08,15,3.20
2016,03,03,08,16,4.80
2016,03,03,08,17,6.40
2016,03,03,08,18,8.10
2016,03,03,08,19,8.10
2016,03,03,08,20,6.40
2016,03,03,08,21,6.40
2016,03,03,08,22,8.10
2016,03,03,08,23,9.60
2016,03,03,08,24,9.60
2016,03,03,08,25,9.60
2016,03,03,08,26,11.30
2016,03,03,08,27,8.10
2016,03,03,08,28,8.10
2016,03,03,08,29,9.60
2016,03,03,08,30,11.30
2016,03,03,08,31,8.10
2016,03,03,08,32,4.80
2016,03,03,08,33,3.20
2016,03,03,08,34,1.60
2016,03,03,08,35,3.20
2016,03,03,08,36,4.80
2016,03,03,08,37,4.80
2016,03,03,08,38,8.10
2016,03,03,08,39,6.40
2016,03,03,08,40,6.40
2016,03,03,08,41,4.80
2016,03,03,08,42,4.80
2016,03,03,08,43,4.80
2016,03,03,08,44,6.40
2016,03,03,08,45,4.80
2016,03,03,08,46,8.10
2016,03,03,08,47,8.10
2016,03,03,08,48,8.10
2016,03,03,08,49,6.40
2016,03,03,08,50,8.10
2016,03,03,08,51,20.90
2016,03,03,08,52,11.30
2016,03,03,08,53,9.60
2016,03,03,08,54,11.30
2016,03,03,08,55,6.40
2016,03,03,08,56,3.20
2016,03,03,08,57,3.20
2016,03,03,08,58,3.20
2016,03,03,08,59,3.20
2016,03,03,09,00,3.20
2016,03,03,09,01,6.40
2016,03,03,09,02,6.40
2016,03,03,09,03,4.80
2016,03,03,09,04,3.20
2016,03,03,09,05,3.20
2016,03,03,09,06,4.80
2016,03,03,09,07,4.80
2016,03,03,09,08,4.80
2016,03,03,09,09,3.20
2016,03,03,09,10,3.20
2016,03,03,09,11,3.20
2016,03,03,09,12,1.60
2016,03,03,09,13,1.60
2016,03,03,09,14,6.40
2016,03,03,09,15,6.40
2016,03,03,09,16,4.80
2016,03,03,09,17,4.80
2016,03,03,09,18,4.80
2016,03,03,09,19,1.60
2016,03,03,09,20,3.20
2016,03,03,09,21,6.40
2016,03,03,09,22,6.40
2016,03,03,09,23,3.20
2016,03,03,09,24,3.20
2016,03,03,09,25,8.10
2016,03,03,09,26,9.60
2016,03,03,09,27,4.80
2016,03,03,09,28,3.20
2016,03,03,09,29,9.60
2016,03,03,09,30,8.10
2016,03,03,09,31,9.60
2016,03,03,09,32,8.10
2016,03,03,09,33,9.60
2016,03,03,09,34,6.40
2016,03,03,09,35,6.40
2016,03,03,09,36,4.80
2016,03,03,09,37,6.40
2016,03,03,09,38,16.10
2016,03,03,09,39,8.10
2016,03,03,09,40,6.40
2016,03,03,09,41,12.90
2016,03,03,09,42,9.60
2016,03,03,09,43,11.30
2016,03,03,09,44,14.50
2016,03,03,09,45,12.90
2016,03,03,09,46,17.70
2016,03,03,09,47,12.90
2016,03,03,09,48,6.40
2016,03,03,09,49,12.90
2016,03,03,09,50,14.50
2016,03,03,09,51,12.90
2016,03,03,09,52,14.50
2016,03,03,09,53,14.50
2016,03,03,09,54,8.10
2016,03,03,09,55,9.60
2016,03,03,09,56,6.40
2016,03,03,09,57,6.40
2016,03,03,09,58,4.80
2016,03,03,09,59,4.80
2016,03,03,10,00,6.40
2016,03,03,10,01,4.80
2016,03,03,10,02,4.80
2016,03,03,10,03,9.60
2016,03,03,10,04,6.40
2016,03,03,10,05,4.80
2016,03,03,10,06,6.40
2016,03,03,10,07,6.40
2016,03,03,10,08,3.20
2016,03,03,10,09,6.40
2016,03,03,10,10,8.10
2016,03,03,10,11,4.80
2016,03,03,10,12,8.10
2016,03,03,10,13,8.10
2016,03,03,10,14,4.80
2016,03,03,10,15,3.20
2016,03,03,10,16,6.40
2016,03,03,10,17,6.40
2016,03,03,10,18,11.30
2016,03,03,10,19,8.10
2016,03,03,10,20,4.80
2016,03,03,10,21,8.10
2016,03,03,10,22,8.10
2016,03,03,10,23,6.40
2016,03,03,10,24,6.40
2016,03,03,10,25,3.20
2016,03,03,10,26,6.40
2016,03,03,10,27,6.40
2016,03,03,10,28,6.40
2016,03,03,10,29,12.90
2016,03,03,10,30,4.80
2016,03,03,10,31,9.60
2016,03,03,10,32,8.10
2016,03,03,10,33,8.10
2016,03,03,10,34,11.30
2016,03,03,10,35,3.20
2016,03,03,10,36,6.40
2016,03,03,10,37,9.60
2016,03,03,10,38,8.10
2016,03,03,10,39,9.60
2016,03,03,10,40,19.30
2016,03,03,10,41,16.10
2016,03,03,10,42,12.90
2016,03,03,10,43,16.10
2016,03,03,10,44,17.70
2016,03,03,10,45,14.50
2016,03,03,10,46,14.50
2016,03,03,10,47,12.90
2016,03,03,10,48,16.10
2016,03,03,10,49,12.90
2016,03,03,10,50,17.70
2016,03,03,10,51,17.70
2016,03,03,10,52,14.50
2016,03,03,10,53,14.50
2016,03,03,10,54,12.90
2016,03,03,10,55,14.50
2016,03,03,10,56,14.50
2016,03,03,10,57,17.70
2016,03,03,10,58,17.70
2016,03,03,10,59,17.70
2016,03,03,11,00,16.10
2016,03,03,11,01,12.90
2016,03,03,11,02,9.60
2016,03,03,11,03,11.30
2016,03,03,11,04,14.50
2016,03,03,11,05,14.50
2016,03,03,11,06,12.90
2016,03,03,11,07,8.10
2016,03,03,11,08,11.30
2016,03,03,11,09,9.60
2016,03,03,11,10,9.60
2016,03,03,11,11,16.10
2016,03,03,11,12,8.10
2016,03,03,11,13,12.90
2016,03,03,11,14,9.60
2016,03,03,11,15,8.10
2016,03,03,11,16,8.10
2016,03,03,11,17,9.60
2016,03,03,11,18,9.60
2016,03,03,11,19,8.10
2016,03,03,11,20,14.50
2016,03,03,11,21,11.30
2016,03,03,11,22,8.10
2016,03,03,11,23,4.80
2016,03,03,11,24,11.30
2016,03,03,11,25,11.30
2016,03,03,11,26,11.30
2016,03,03,11,27,8.10
2016,03,03,11,28,8.10
2016,03,03,11,29,6.40
2016,03,03,11,30,9.60
2016,03,03,11,31,9.60
2016,03,03,11,32,12.90
2016,03,03,11,33,9.60
2016,03,03,11,34,9.60
2016,03,03,11,35,9.60
2016,03,03,11,36,9.60
2016,03,03,11,37,9.60
2016,03,03,11,38,8.10
2016,03,03,11,39,6.40
2016,03,03,11,40,8.10
2016,03,03,11,41,9.60
2016,03,03,11,42,9.60
2016,03,03,11,43,8.10
2016,03,03,11,44,6.40
2016,03,03,11,45,6.40
2016,03,03,11,46,4.80
2016,03,03,11,47,4.80
2016,03,03,11,48,6.40
2016,03,03,11,49,4.80
2016,03,03,11,50,6.40
2016,03,03,11,51,4.80
2016,03,03,11,52,3.20
2016,03,03,11,53,4.80
2016,03,03,11,54,8.10
2016,03,03,11,55,4.80
2016,03,03,11,56,9.60
2016,03,03,11,57,9.60
2016,03,03,11,58,6.40
2016,03,03,11,59,6.40
2016,03,03,12,00,8.10
2016,03,03,12,01,6.40
2016,03,03,12,02,6.40
2016,03,03,12,03,4.80
2016,03,03,12,04,4.80
2016,03,03,12,05,4.80
2016,03,03,12,06,3.20
2016,03,03,12,07,3.20
2016,03,03,12,08,4.80
2016,03,03,12,09,6.40
2016,03,03,12,10,6.40
2016,03,03,12,11,4.80
2016,03,03,12,12,6.40
2016,03,03,12,13,4.80
2016,03,03,12,14,6.40
2016,03,03,12,15,6.40
2016,03,03,12,16,6.40
2016,03,03,12,17,1.60
2016,03,03,12,18,6.40
2016,03,03,12,19,6.40
2016,03,03,12,20,3.20
2016,03,03,12,21,8.10
2016,03,03,12,22,9.60
2016,03,03,12,23,8.10
2016,03,03,12,24,8.10
2016,03,03,12,25,8.10
2016,03,03,12,26,6.40
2016,03,03,12,27,12.90
2016,03,03,12,28,11.30
2016,03,03,12,29,11.30
2016,03,03,12,30,11.30
2016,03,03,12,31,6.40
2016,03,03,12,32,12.90
2016,03,03,12,33,11.30
2016,03,03,12,34,12.90
2016,03,03,12,35,6.40
2016,03,03,12,36,8.10
2016,03,03,12,37,6.40
2016,03,03,12,38,8.10
2016,03,03,12,39,4.80
2016,03,03,12,40,8.10
2016,03,03,12,41,8.10
2016,03,03,12,42,11.30
2016,03,03,12,43,11.30
2016,03,03,12,44,9.60
2016,03,03,12,45,11.30
2016,03,03,12,46,6.40
2016,03,03,12,47,16.10
2016,03,03,12,48,11.30
2016,03,03,12,49,9.60
2016,03,03,12,50,14.50
2016,03,03,12,51,12.90
2016,03,03,12,52,11.30
2016,03,03,12,53,14.50
2016,03,03,12,54,14.50
2016,03,03,12,55,9.60
2016,03,03,12,56,9.60
2016,03,03,12,57,8.10
2016,03,03,12,58,16.10
2016,03,03,12,59,17.70
2016,03,03,13,00,9.60
2016,03,03,13,01,12.90
2016,03,03,13,02,9.60
2016,03,03,13,03,11.30
2016,03,03,13,04,12.90
2016,03,03,13,05,14.50
2016,03,03,13,06,11.30
2016,03,03,13,07,6.40
2016,03,03,13,08,11.30
2016,03,03,13,09,17.70
2016,03,03,13,10,12.90
2016,03,03,13,11,12.90
2016,03,03,13,12,16.10
2016,03,03,13,13,14.50
2016,03,03,13,14,20.90
2016,03,03,13,15,20.90
2016,03,03,13,16,16.10
2016,03,03,13,17,17.70
2016,03,03,13,18,16.10
2016,03,03,13,19,8.10
2016,03,03,13,20,8.10
2016,03,03,13,21,12.90
2016,03,03,13,22,6.40
2016,03,03,13,23,12.90
2016,03,03,13,24,12.90
2016,03,03,13,25,14.50
2016,03,03,13,26,16.10
2016,03,03,13,27,14.50
2016,03,03,13,28,16.10
2016,03,03,13,29,12.90
2016,03,03,13,30,24.20
2016,03,03,13,31,17.70
2016,03,03,13,32,14.50
2016,03,03,13,33,17.70
2016,03,03,13,34,14.50
2016,03,03,13,35,16.10
2016,03,03,13,36,11.30
2016,03,03,13,37,22.50
2016,03,03,13,38,9.60
2016,03,03,13,39,16.10
2016,03,03,13,40,12.90
2016,03,03,13,41,17.70
2016,03,03,13,42,16.10
2016,03,03,13,43,19.30
2016,03,03,13,44,17.70
2016,03,03,13,45,14.50
2016,03,03,13,46,22.50
2016,03,03,13,47,20.90
2016,03,03,13,48,16.10
2016,03,03,13,49,20.90
2016,03,03,13,50,9.60
2016,03,03,13,51,14.50
2016,03,03,13,52,12.90
2016,03,03,13,53,12.90
2016,03,03,13,54,14.50
2016,03,03,13,55,17.70
2016,03,03,13,56,12.90
2016,03,03,13,57,12.90
2016,03,03,13,58,14.50
2016,03,03,13,59,11.30
2016,03,03,14,00,12.90
2016,03,03,14,01,14.50
2016,03,03,14,02,12.90
2016,03,03,14,03,11.30
2016,03,03,14,04,11.30
2016,03,03,14,05,12.90
2016,03,03,14,06,9.60
2016,03,03,14,07,11.30
2016,03,03,14,08,9.60
2016,03,03,14,09,6.40
2016,03,03,14,10,6.40
2016,03,03,14,11,4.80
2016,03,03,14,12,4.80
2016,03,03,14,13,6.40
2016,03,03,14,14,8.10
2016,03,03,14,15,6.40
2016,03,03,14,16,8.10
2016,03,03,14,17,6.40
2016,03,03,14,18,8.10
2016,03,03,14,19,11.30
2016,03,03,14,20,9.60
2016,03,03,14,21,6.40
2016,03,03,14,22,4.80
2016,03,03,14,23,6.40
2016,03,03,14,24,8.10
2016,03,03,14,25,11.30
2016,03,03,14,26,8.10
2016,03,03,14,27,9.60
2016,03,03,14,28,12.90
2016,03,03,14,29,11.30
2016,03,03,14,30,8.10
2016,03,03,14,31,9.60
2016,03,03,14,32,8.10
2016,03,03,14,33,8.10
2016,03,03,14,34,9.60
2016,03,03,14,35,12.90
2016,03,03,14,36,12.90
2016,03,03,14,37,17.70
2016,03,03,14,38,19.30
2016,03,03,14,39,14.50
2016,03,03,14,40,16.10
2016,03,03,14,41,6.40
2016,03,03,14,42,11.30
2016,03,03,14,43,9.60
2016,03,03,14,44,11.30
2016,03,03,14,45,11.30
2016,03,03,14,46,20.90
2016,03,03,14,47,19.30
2016,03,03,14,48,17.70
2016,03,03,14,49,14.50
2016,03,03,14,50,19.30
2016,03,03,14,51,20.90
2016,03,03,14,52,16.10
2016,03,03,14,53,11.30
2016,03,03,14,54,12.90
2016,03,03,14,55,22.50
2016,03,03,14,56,24.20
2016,03,03,14,57,14.50
2016,03,03,14,58,12.90
2016,03,03,14,59,12.90
2016,03,03,15,00,19.30
2016,03,03,15,01,12.90
2016,03,03,15,02,17.70
2016,03,03,15,03,20.90
2016,03,03,15,04,17.70
2016,03,03,15,05,16.10
2016,03,03,15,06,16.10
2016,03,03,15,07,17.70
2016,03,03,15,08,12.90
2016,03,03,15,09,22.50
2016,03,03,15,10,27.40
2016,03,03,15,11,14.50
2016,03,03,15,12,17.70
2016,03,03,15,13,14.50
2016,03,03,15,14,17.70
2016,03,03,15,15,12.90
2016,03,03,15,16,16.10
2016,03,03,15,17,16.10
2016,03,03,15,18,16.10
2016,03,03,15,19,19.30
2016,03,03,15,20,20.90
2016,03,03,15,21,16.10
2016,03,03,15,22,16.10
2016,03,03,15,23,16.10
2016,03,03,15,24,16.10
2016,03,03,15,25,11.30
2016,03,03,15,26,9.60
2016,03,03,15,27,11.30
2016,03,03,15,28,9.60
2016,03,03,15,29,9.60
2016,03,03,15,30,8.10
2016,03,03,15,31,11.30
2016,03,03,15,32,6.40
2016,03,03,15,33,9.60
2016,03,03,15,34,12.90
2016,03,03,15,35,14.50
2016,03,03,15,36,16.10
2016,03,03,15,37,24.20
2016,03,03,15,38,14.50
2016,03,03,15,39,16.10
2016,03,03,15,40,11.30
2016,03,03,15,41,17.70
2016,03,03,15,42,20.90
2016,03,03,15,43,20.90
2016,03,03,15,44,16.10
2016,03,03,15,45,25.70
2016,03,03,15,46,14.50
2016,03,03,15,47,17.70
2016,03,03,15,48,20.90
2016,03,03,15,49,20.90
2016,03,03,15,50,17.70
2016,03,03,15,51,17.70
2016,03,03,15,52,16.10
2016,03,03,15,53,20.90
2016,03,03,15,54,16.10
2016,03,03,15,55,14.50
2016,03,03,15,56,14.50
2016,03,03,15,57,14.50
2016,03,03,15,58,22.50
2016,03,03,15,59,20.90
2016,03,03,16,00,12.90
2016,03,03,16,01,12.90
2016,03,03,16,02,14.50
2016,03,03,16,03,20.90
2016,03,03,16,04,16.10
2016,03,03,16,05,14.50
2016,03,03,16,06,27.40
2016,03,03,16,07,16.10
2016,03,03,16,08,27.40
2016,03,03,16,09,27.40
2016,03,03,16,10,17.70
2016,03,03,16,11,22.50
2016,03,03,16,12,22.50
2016,03,03,16,13,20.90
2016,03,03,16,14,20.90
2016,03,03,16,15,22.50
2016,03,03,16,16,20.90
2016,03,03,16,17,22.50
2016,03,03,16,18,17.70
2016,03,03,16,19,19.30
2016,03,03,16,20,22.50
2016,03,03,16,21,20.90
2016,03,03,16,22,19.30
2016,03,03,16,23,9.60
2016,03,03,16,24,9.60
2016,03,03,16,25,24.20
2016,03,03,16,26,22.50
2016,03,03,16,27,17.70
2016,03,03,16,28,24.20
2016,03,03,16,29,16.10
2016,03,03,16,30,17.70
2016,03,03,16,31,16.10
2016,03,03,16,32,19.30
2016,03,03,16,33,11.30
2016,03,03,16,34,16.10
2016,03,03,16,35,17.70
2016,03,03,16,36,27.40
2016,03,03,16,37,24.20
2016,03,03,16,38,27.40
2016,03,03,16,39,19.30
2016,03,03,16,40,29.00
2016,03,03,16,41,22.50
2016,03,03,16,42,16.10
2016,03,03,16,43,19.30
2016,03,03,16,44,24.20
2016,03,03,16,45,19.30
2016,03,03,16,46,27.40
2016,03,03,16,47,25.70
2016,03,03,16,48,27.40
2016,03,03,16,49,27.40
2016,03,03,16,50,27.40
2016,03,03,16,51,24.20
2016,03,03,16,52,25.70
2016,03,03,16,53,22.50
2016,03,03,16,54,20.90
2016,03,03,16,55,27.40
2016,03,03,16,56,27.40
2016,03,03,16,57,27.40
2016,03,03,16,58,30.60
2016,03,03,16,59,20.90
2016,03,03,17,00,22.50
2016,03,03,17,01,17.70
2016,03,03,17,02,20.90
2016,03,03,17,03,30.60
2016,03,03,17,04,24.20
2016,03,03,17,05,27.40
2016,03,03,17,06,17.70
2016,03,03,17,07,25.70
2016,03,03,17,08,25.70
2016,03,03,17,09,16.10
2016,03,03,17,10,20.90
2016,03,03,17,11,20.90
2016,03,03,17,12,16.10
2016,03,03,17,13,20.90
2016,03,03,17,14,22.50
2016,03,03,17,15,19.30
2016,03,03,17,16,16.10
2016,03,03,17,17,14.50
2016,03,03,17,18,17.70
2016,03,03,17,19,9.60
2016,03,03,17,20,14.50
2016,03,03,17,21,24.20
2016,03,03,17,22,20.90
2016,03,03,17,23,17.70
2016,03,03,17,24,19.30
2016,03,03,17,25,19.30
2016,03,03,17,26,20.90
2016,03,03,17,27,25.70
2016,03,03,17,28,19.30
2016,03,03,17,29,24.20
2016,03,03,17,30,20.90
2016,03,03,17,31,16.10
2016,03,03,17,32,25.70
2016,03,03,17,33,22.50
2016,03,03,17,34,17.70
2016,03,03,17,35,19.30
2016,03,03,17,36,22.50
2016,03,03,17,37,22.50
2016,03,03,17,38,16.10
2016,03,03,17,39,17.70
2016,03,03,17,40,25.70
2016,03,03,17,41,24.20
2016,03,03,17,42,24.20
2016,03,03,17,43,20.90
2016,03,03,17,44,20.90
2016,03,03,17,45,19.30
2016,03,03,17,46,16.10
2016,03,03,17,47,27.40
2016,03,03,17,48,22.50
2016,03,03,17,49,24.20
2016,03,03,17,50,17.70
2016,03,03,17,51,20.90
2016,03,03,17,52,17.70
2016,03,03,17,53,17.70
2016,03,03,17,54,24.20
2016,03,03,17,55,19.30
2016,03,03,17,56,24.20
2016,03,03,17,57,30.60
2016,03,03,17,58,20.90
2016,03,03,17,59,29.00
2016,03,03,18,00,24.20
2016,03,03,18,01,25.70
2016,03,03,18,02,20.90